This demonstration page uses our WeatherBlox Daily Observations layout. Learn more.

Hourly Observations for August 27, 2019

Temp ( °F °C ) Dew Point ( °F °C ) Humidity (%) Winds ( mph kmh ) Pressure ( in mb ) Visibility ( mi km ) Precip ( " mm )
12:15 am 00:15 Clear 60 15.3 58 14.4 94 94 WNW 3 6 30 1016 10 16.09344 0 0
12:35 am 00:35 Clear 58 14.7 58 14.2 97 97 WNW 3 6 30 1016 10 16.09344 0 0
12:55 am 00:55 Clear 58 14.6 58 14.2 97 97 WNW 3 6 30 1016 10 16.09344 0 0
1:15 am 01:15 Clear 58 14.3 57 14.1 99 99 W 3 6 30 1016 10 16.09344 0 0
1:35 am 01:35 Clear 58 14.6 57 13.9 96 96 WNW 5 7 30.03 1017 10 16.09344 0 0
1:55 am 01:55 Clear 59 15 56 13.2 89 89 WNW 5 7 30.03 1017 10 16.09344 0 0
2:15 am 02:15 Clear 58 14.6 56 13.1 91 91 WNW 5 7 30.03 1017 10 16.09344 0 0
2:35 am 02:35 Clear 58 14.5 55 12.9 90 90 WNW 6 9 30.03 1017 10 16.09344 0 0
2:55 am 02:55 Clear 58 14.3 55 12.7 90 90 NW 3 6 30.03 1017 10 16.09344 0 0
3:15 am 03:15 Clear 57 13.7 55 12.5 93 93 NW 5 7 30.03 1017 10 16.09344 0 0
3:35 am 03:35 Clear 56 13.5 54 12.3 93 93 WNW 3 6 30.03 1017 10 16.09344 0 0
3:55 am 03:55 Clear 56 13.5 54 12.2 92 92 WNW 5 7 30.03 1017 10 16.09344 0 0
4:15 am 04:15 Clear 55 12.7 54 12.1 96 96 WNW 3 6 30.06 1018 10 16.09344 0 0
4:35 am 04:35 Clear 54 12.2 53 11.8 97 97 WNW 3 6 30.06 1018 10 16.09344 0 0
4:55 am 04:55 Clear 54 12.2 54 12 99 99 WNW 3 6 30.06 1018 10 16.09344 0 0
5:15 am 05:15 Clear 54 12.3 54 12 98 98 W 3 6 30.06 1018 10 16.09344 0 0
5:35 am 05:35 Clear 55 12.5 53 11.9 96 96 WNW 5 7 30.06 1018 10 16.09344 0 0
5:55 am 05:55 Clear 55 12.5 53 11.9 96 96 WNW 5 7 30.06 1018 10 16.09344 0 0
6:15 am 06:15 Clear 54 12 53 11.5 97 97 WNW 3 6 30.06 1018 10 16.09344 0 0
6:35 am 06:35 Clear 54 12.4 53 11.6 95 95 WNW 3 6 30.06 1018 10 16.09344 0 0
6:55 am 06:55 Clear 54 12.1 52 11.3 95 95 NW 5 7 30.09 1019 10 16.09344 0 0
7:15 am 07:15 Mostly Cloudy 54 12.3 53 11.6 96 96 NW 3 6 30.09 1019 10 16.09344 0 0
7:35 am 07:35 Mostly Cloudy 55 13 53 11.9 93 93 NW 5 7 30.12 1020 10 16.09344 0 0
7:55 am 07:55 Mostly Cloudy 56 13.6 54 12 90 90 NNW 5 7 30.12 1020 10 16.09344 0 0
8:15 am 08:15 Partly Cloudy 57 14 55 12.5 91 91 NNW 5 7 30.09 1019 10 16.09344 0 0
8:35 am 08:35 Sunny 58 14.3 55 12.6 90 90 N 5 7 30.09 1019 10 16.09344 0 0
8:55 am 08:55 Sunny 59 15 55 13 88 88 N 7 11 30.09 1019 10 16.09344 0 0
9:15 am 09:15 Partly Cloudy 59 15.2 55 13 87 87 NW 5 7 30.09 1019 10 16.09344 0 0
9:35 am 09:35 Mostly Cloudy 60 15.5 56 13.2 86 86 Calm 30.09 1019 10 16.09344 0 0
9:55 am 09:55 Partly Cloudy 61 15.9 56 13.4 85 85 NNW 3 6 30.09 1019 10 16.09344 0 0
10:15 am 10:15 Partly Cloudy 62 16.7 57 13.7 83 83 NW 6 9 30.09 1019 10 16.09344 0 0
10:35 am 10:35 Partly Cloudy 63 17.2 56 13.3 78 78 WNW 6 9 30.06 1018 10 16.09344 0 0
10:55 am 10:55 Mostly Cloudy 64 17.8 56 13.1 74 74 WNW 5 7 30.06 1018 10 16.09344 0 0
11:15 am 11:15 Cloudy 65 18.3 56 13.1 72 72 NW 7 11 30.06 1018 10 16.09344 0 0
11:35 am 11:35 Cloudy 65 18.5 55 12.7 69 69 NNW 5 7 30.09 1019 10 16.09344 0 0
11:55 am 11:55 Cloudy 66 18.8 55 12.9 69 69 WNW 6 9 30.09 1019 10 16.09344 0 0
12:15 pm 12:15 Cloudy 66 19 55 12.6 67 67 W 7 11 30.09 1019 10 16.09344 0 0
12:35 pm 12:35 Cloudy 66 19.1 55 12.5 66 66 W 5 7 30.09 1019 10 16.09344 0 0
12:55 pm 12:55 Cloudy 68 19.9 54 12.1 61 61 W 5 7 30.09 1019 10 16.09344 0 0
1:15 pm 13:15 Cloudy 67 19.6 54 12 62 62 W 5 7 30.09 1019 10 16.09344 0 0
1:35 pm 13:35 Cloudy 67 19.3 54 12 63 63 WSW 3 6 30.09 1019 10 16.09344 0 0
1:55 pm 13:55 Cloudy 67 19.2 54 12.3 64 64 WSW 5 7 30.09 1019 10 16.09344 0 0
2:15 pm 14:15 Cloudy 66 18.8 58 14.5 76 76 WSW 5 7 30.06 1018 10 16.09344 0 0
2:35 pm 14:35 Cloudy 67 19.4 55 12.9 66 66 W 3 6 30.06 1018 10 16.09344 0 0
2:55 pm 14:55 Cloudy 67 19.3 56 13.6 70 70 W 6 9 30.06 1018 10 16.09344 0 0
3:15 pm 15:15 Cloudy 66 18.7 58 14.5 77 77 W 7 11 30.06 1018 10 16.09344 0 0
3:35 pm 15:35 Cloudy 67 19.3 59 14.8 75 75 W 5 7 30.06 1018 10 16.09344 0 0
3:55 pm 15:55 Cloudy 67 19.6 57 14.1 71 71 W 6 9 30.06 1018 10 16.09344 0 0
4:15 pm 16:15 Cloudy 67 19.2 57 13.8 71 71 W 5 7 30.06 1018 10 16.09344 0 0
4:35 pm 16:35 Cloudy 67 19.3 57 14 72 72 W 5 7 30.06 1018 10 16.09344 0 0
4:55 pm 16:55 Cloudy 67 19.3 55 12.9 67 67 W 7 11 30.06 1018 10 16.09344 0 0
5:15 pm 17:15 Cloudy 66 18.8 56 13.2 70 70 WSW 6 9 30.06 1018 10 16.09344 0 0
5:35 pm 17:35 Cloudy 66 19.1 53 11.8 63 63 WSW 6 9 30.06 1018 10 16.09344 0 0
5:55 pm 17:55 Mostly Cloudy 69 20.5 53 11.5 56 56 WSW 5 7 30.06 1018 10 16.09344 0 0
6:15 pm 18:15 Partly Cloudy 68 20.2 54 12.1 60 60 SW 6 9 30.06 1018 10 16.09344 0 0
6:35 pm 18:35 Mostly Cloudy 68 20 55 12.5 62 62 WSW 5 7 30.06 1018 10 16.09344 0 0
6:55 pm 18:55 Mostly Cloudy 67 19.3 56 13.1 68 68 SW 5 7 30.06 1018 10 16.09344 0 0
7:15 pm 19:15 Cloudy 66 19 56 13.5 71 71 SW 3 6 30.06 1018 10 16.09344 0 0
7:35 pm 19:35 Cloudy 65 18.6 56 13.6 73 73 SW 7 11 30.03 1017 10 16.09344 0 0
7:55 pm 19:55 Cloudy 65 18.1 55 12.9 72 72 SW 5 7 30.03 1017 10 16.09344 0 0
8:15 pm 20:15 Cloudy 64 17.8 56 13.1 74 74 SW 6 9 30.03 1017 10 16.09344 0 0
8:35 pm 20:35 Cloudy 64 17.5 56 13.4 77 77 SW 6 9 30.03 1017 10 16.09344 0 0
8:55 pm 20:55 Cloudy 63 17 56 13.3 79 79 WSW 3 6 30.09 1019 10 16.09344 0 0
9:15 pm 21:15 Mostly Cloudy 62 16.4 55 12.5 78 78 WSW 3 6 30.09 1019 10 16.09344 0 0
9:35 pm 21:35 Partly Cloudy 61 15.9 55 12.5 80 80 Calm 30.09 1019 10 16.09344 0 0
9:55 pm 21:55 Partly Cloudy 60 15.7 55 12.6 82 82 Calm 30.09 1019 10 16.09344 0 0
10:15 pm 22:15 Mostly Cloudy 60 15.5 56 13.3 87 87 Calm 30.09 1019 10 16.09344 0 0
10:35 pm 22:35 Cloudy 59 15.2 56 13.4 89 89 SW 3 6 30.09 1019 10 16.09344 0 0
10:55 pm 22:55 Mostly Cloudy 59 15.2 56 13.1 87 87 Calm 30.09 1019 10 16.09344 0 0
11:15 pm 23:15 Partly Cloudy 59 15 55 12.6 86 86 SW 3 6 30.09 1019 10 16.09344 0 0
11:35 pm 23:35 Clear 58 14.6 55 12.7 88 88 Calm 30.09 1019 10 16.09344 0 0
11:55 pm 23:55 Clear 58 14.5 54 12.4 87 87 Calm 30.09 1019 10 16.09344 0 0

Powered by AerisWeather